sat.trackr.live / text

‹ back to catalog

STARLINK-34634

NORAD 65079 · 2025-167B

PAYLOAD ACTIVE UNKNOWN

§ Identity

Operator
Country
US
Launch date
2025-08-04
Launch site
AFETR
Launch vehicle
Mass (kg)
RCS (m²)

Purposes: comms

External: N2YO · Heavens-Above · Gunter

§ Orbital elements

Epoch: 2026-05-25T01:25:19.517088Z

Period
93.85 min
Inclination
53.1602°
Eccentricity
0.0001055
Mean motion
15.34407443 rev/d
Perigee alt
462.0 km
Apogee alt
463.4 km
Semi-major
6,840.8 km
B*
4.3144e-4
RAAN
29.0505°
Arg perigee
103.1277°
Mean anomaly
256.9843°
Rev number
4,521

§ Raw data

STARLINK-346341 65079U 25167B   26145.05925367  .00014232  00000+0  43144-3 0  99932 65079  53.1602  29.0505 0001055 103.1277 256.9843 15.34407443 45213

JSON: /api/v1/satellites/65079 · /tle

For live sub-satellite position, see the globe view (requires WebGL).

§ Visibility from observer

Set your observer location to see the next 7 days of passes ≥ 10°. The values pass through the URL so the page stays shareable.

No JS? Fill the form by hand. The geolocation button needs JavaScript.